Location: Jabiru
(12.6667°S, 132.8333°E)
Time: 21:33:58
(UTC+09:30)

KKS-1 - Visible Passes

Search period start: 24 April 2019 00:00
Search period end: 04 May 2019 00:00
Orbit: 637 x 651 km, 98.4° (Epoch: 23 April)

Date Brightness Start Highest point End Pass type
(mag) Time Alt. Az. Time Alt. Az. Time Alt. Az.
24 Apr ? 20:00:04 10° NW 20:02:49 16° W 20:05:35 10° WSW visible
25 Apr ? 18:46:37 10° NNE 18:50:57 51° ESE 18:55:20 10° S visible
26 Apr ? 19:11:01 10° N 19:15:28 72° WNW 19:19:58 10° SSW visible
27 Apr ? 19:36:01 10° NNW 19:40:01 32° W 19:44:04 10° SW visible
28 Apr ? 20:01:56 10° NW 20:04:35 16° W 20:07:17 10° WSW visible
29 Apr ? 18:48:22 10° NNE 18:52:44 53° ESE 18:57:08 10° S visible
30 Apr ? 19:12:48 10° N 19:17:15 70° WNW 19:21:44 10° SSW visible
01 May ? 19:37:50 10° NNW 19:41:48 31° W 19:45:49 10° SW visible
02 May ? 20:03:49 10° NW 20:06:23 15° W 20:08:57 10° WSW visible
03 May ? 18:50:08 10° NNE 18:54:30 55° ESE 18:58:55 10° S visible
